Regional Weather Roundup
Issued by NWS Charleston, WV

Home | Current Version | Previous Version | Text Only | Print | Product List | Glossary Off
Versions: 1 2 3 4 5 6 7 8 9 10 11 12 13 14 15 16 17 18 19 20 21 22 23 24 25 26 27 28 29 30 31 32 33 34 35 36 37 38 39 40 41 42 43 44 45 46 47 48

000
ASUS41 KRLX 201310
RWRRLX
West Virginia Regional Weather Roundup
National Weather Service Charleston WV
Issued by National Weather Service Pittsburgh PA
800 AM EST MON FEB 20 2017

Note: "fair" indicates few or no clouds below 12,000 feet with no
significant weather and/or obstructions to visibility.

WVZ003-201400-
Northern Panhandle of West Virginia

CITY           SKY/WX    TMP DP  RH WIND       PRES   REMARKS
WHEELING       FOG       42  41  96 CALM      30.26R VSB<1/4
$$

WVZ009-201400-
Northwest West Virginia

CITY           SKY/WX    TMP DP  RH WIND       PRES   REMARKS
PARKERSBURG    FOG       35  33  92 CALM      30.30R VSB 1/8
$$

WVZ006-201400-
Western West Virginia

CITY           SKY/WX    TMP DP  RH WIND       PRES   REMARKS
HUNTINGTON     FOG       37  36  96 CALM      30.27R VSB 1/8
$$

WVZ015-201400-
West Central West Virginia

CITY           SKY/WX    TMP DP  RH WIND       PRES   REMARKS
CHARLESTON     FOG       37  37 100 CALM      30.26R VSB 1/4
$$

WVZ031-201400-
North Central West Virginia

CITY           SKY/WX    TMP DP  RH WIND       PRES   REMARKS
CLARKSBURG     CLOUDY    47  43  86 CALM      30.26R FOG
MORGANTOWN     CLOUDY    49  43  80 S3        30.26R HAZE
$$

WVZ035-042-201400-
South Central West Virginia

CITY           SKY/WX    TMP DP  RH WIND       PRES   REMARKS
BECKLEY        PTCLDY    35  33  92 S5        30.24R FOG     WCI  31
BLUEFIELD      CLOUDY    42  40  92 CALM      30.26R
$$

WVZ045-201400-
Greenbrier Valley of West Virginia

CITY           SKY/WX    TMP DP  RH WIND       PRES   REMARKS
LEWISBURG      FOG       34  34  99 CALM      30.26R VSB<1/4
$$

WVZ047-201400-
Northern Mountains of West Virginia

CITY           SKY/WX    TMP DP  RH WIND       PRES   REMARKS
ELKINS         FOG       33  31  92 CALM      30.27R VSB 1
$$

WVZ052-201400-
Eastern Panhandle of West Virginia

CITY           SKY/WX    TMP DP  RH WIND       PRES   REMARKS
MARTINSBURG    SUNNY     43  39  86 CALM      30.23R
PETERSBURG       N/A     34  34  99 CALM      30.26R FOG
$$




USA.gov is the U.S. government's official web portal to all federal, state and local government web resources and services.